Погода в Большом Хомутце

Россия / Липецкая область     52°47′27″N   39°51′24″E
темп.,
°C
ветер,
м/с
пор.,
м/с
влажн.,
%
обл.,
%
осадки,
мм/ч
давл.,
гПа
погр.,
м
8 мая, сб
сб800:00+8ююв35675 0.0 101583
03:00+7ююв41082100 0.0 1015244
06:00+8ююв51377100 0.0 1014403
09:00+13ююв7126270 0.0 1013831
12:00+16ююв91355100 0.0 10101469
15:00+15ююв81463100 0.0 10071185
18:00+13ю71591100 2.6 10051069
21:00+12ююз61290100 4.1 1005671
9 мая, вс
вс900:00+10ююз51091100 0.0 1006553
03:00+7юз71088100 0.1 1007810
06:00+5з71195100 0.1 1010775
09:00+5сз61186100 0.3 1013865
12:00+9ссз6962100 0.1 10151562
15:00+9сз896286 0.1 10181484
18:00+8сз5969100 0.1 10201437
21:00+5сз4879100 0.1 1022262
10 мая, пн
пн1000:00+4сз378134 0.0 1023152
03:00+4ссз4128098 0.0 1025278
06:00+5с5137698 0.0 1026426
09:00+10с7125689 0.0 10271389
12:00+13ссв811434 0.0 10261630
15:00+14ссв9114319 0.0 10251680
18:00+13ссв7125345 0.0 10251351
21:00+10ссв61459100 0.0 1026638
11 мая, вт
вт1100:00+10св71556100 0.0 1026719
03:00+9ссв71660100 0.0 1025596
06:00+9св71665100 0.0 1025597
09:00+10св71568100 0.0 1025605
12:00+12св61171100 0.1 1025728
15:00+15всв6107499 0.3 10251028
18:00+14всв2481100 0.2 1024170
21:00+13всв51187100 1.8 1023609
12 мая, ср
ср1200:00+12вюв3698100 2.9 1023332
03:00+10юв2595100 6.3 1024259
06:00+10в24915 0.0 1025151
09:00+13св4574100 0.0 1024601
12:00+11ссв4693100 1.0 1024297
15:00+12ссв389892 1.8 1022389
18:00+14в2597100 0.9 1021185
21:00+13всв4109777 2.4 1020302